| time (UTC) | temp F | wind direction | speed MPH | gust MPH | rain 1hr in | rain 24hr in | rain mn in | humidity % | barometer mb |
| 20260902033417 | 87 | 15 | 0.0 | 0.0 | 0.00 | 0.00 | 0.00 | 53 | 1008.9 |
| 20260902032416 | 87 | 5 | 5.0 | 8.0 | 0.00 | 0.00 | 0.00 | 53 | 1008.8 |
| 20260902031417 | 87 | 360 | 6.0 | 10.0 | 0.00 | 0.00 | 0.00 | 52 | 1008.7 |
| 20260902030416 | 86 | 1 | 8.0 | 11.0 | 0.00 | 0.00 | 0.00 | 52 | 1008.6 |
| 20260902025717 | 86 | 353 | 10.0 | 14.0 | 0.00 | 0.00 | 0.00 | 53 | 1008.5 |
| 20260902024716 | 86 | 358 | 8.0 | 11.0 | 0.00 | 0.00 | 0.00 | 54 | 1008.6 |
| 20260902023717 | 86 | 343 | 11.0 | 16.0 | 0.00 | 0.00 | 0.00 | 53 | 1008.6 |
| 20260902022717 | 87 | 342 | 10.0 | 14.0 | 0.00 | 0.00 | 0.00 | 53 | 1008.8 |
| 20260902021717 | 88 | 344 | 11.0 | 14.0 | 0.00 | 0.00 | 0.00 | 52 | 1008.6 |
| 20260902020717 | 91 | 330 | 6.0 | 8.0 | 0.00 | 0.00 | 0.00 | 51 | 1008.2 |
| 20260902020517 | 91 | 335 | 3.0 | 3.0 | 0.00 | 0.00 | 0.00 | 51 | 1008.0 |
| 20260902015716 | 91 | 19 | 5.0 | 5.0 | 0.00 | 0.00 | 0.00 | 51 | 1007.9 |
| 20260902014717 | 91 | 331 | 2.0 | 6.0 | 0.00 | 0.00 | 0.00 | 52 | 1007.7 |
| 20260902013717 | 91 | 338 | 5.0 | 9.0 | 0.00 | 0.00 | 0.00 | 50 | 1007.8 |
| 20260902012716 | 91 | 333 | 7.0 | 9.0 | 0.00 | 0.00 | 0.00 | 48 | 1007.8 |
| 20260902011717 | 91 | 346 | 10.0 | 15.0 | 0.00 | 0.00 | 0.00 | 47 | 1007.7 |
| 20260902010717 | 92 | 336 | 11.0 | 13.0 | 0.00 | 0.00 | 0.00 | 44 | 1007.8 |
| 20260902005717 | 102 | 0.0 | 0.0 | 0.00 | 0.00 | 0.00 | 31 | 1007.1 | |
| 20260902004717 | 103 | 182 | 8.0 | 10.0 | 0.00 | 0.00 | 0.00 | 31 | 1006.7 |
| 20260902003717 | 105 | 201 | 6.0 | 9.0 | 0.00 | 0.00 | 0.00 | 30 | 1006.3 |
| 20260902002617 | 105 | 165 | 9.0 | 11.0 | 0.00 | 0.00 | 0.00 | 30 | 1005.7 |
| 20260902001617 | 106 | 184 | 9.0 | 10.0 | 0.00 | 0.00 | 0.00 | 30 | 1006.0 |
| 20260902001517 | 106 | 194 | 5.0 | 8.0 | 0.00 | 0.00 | 0.00 | 30 | 1006.1 |
| 20260902000517 | 105 | 195 | 6.0 | 10.0 | 0.00 | 0.00 | 0.00 | 31 | 1006.4 |
| 20260901235517 | 105 | 187 | 5.0 | 9.0 | 0.00 | 0.00 | 0.00 | 31 | 1006.5 |
| 20260901234516 | 104 | 210 | 5.0 | 8.0 | 0.00 | 0.00 | 0.00 | 32 | 1006.5 |
| 20260901233517 | 107 | 156 | 9.0 | 12.0 | 0.00 | 0.00 | 0.00 | 30 | 1006.4 |
| 20260901232516 | 107 | 173 | 3.0 | 9.0 | 0.00 | 0.00 | 0.00 | 30 | 1006.6 |
| 20260901231520 | 106 | 218 | 10.0 | 13.0 | 0.00 | 0.00 | 0.00 | 28 | 1006.8 |
| 20260901230417 | 107 | 210 | 4.0 | 8.0 | 0.00 | 0.00 | 0.00 | 29 | 1007.0 |
| 20260901225416 | 104 | 194 | 3.0 | 6.0 | 0.00 | 0.00 | 0.00 | 32 | 1007.0 |
| 20260901224416 | 106 | 204 | 8.0 | 13.0 | 0.00 | 0.00 | 0.00 | 31 | 1007.1 |
| 20260901223417 | 102 | 0.0 | 0.0 | 0.00 | 0.00 | 0.00 | 34 | 1007.2 | |
| 20260901222417 | 105 | 192 | 8.0 | 11.0 | 0.00 | 0.00 | 0.00 | 32 | 1007.5 |
| 20260901221417 | 105 | 269 | 1.0 | 5.0 | 0.00 | 0.00 | 0.00 | 31 | 1007.5 |
| 20260901220417 | 105 | 235 | 1.0 | 5.0 | 0.00 | 0.00 | 0.00 | 30 | 1007.7 |
| 20260901215416 | 106 | 155 | 5.0 | 8.0 | 0.00 | 0.00 | 0.00 | 30 | 1007.7 |
| 20260901214417 | 105 | 211 | 6.0 | 8.0 | 0.00 | 0.00 | 0.00 | 31 | 1008.0 |
| 20260901213417 | 105 | 201 | 5.0 | 8.0 | 0.00 | 0.00 | 0.00 | 31 | 1008.2 |
| 20260901212417 | 106 | 225 | 9.0 | 13.0 | 0.00 | 0.00 | 0.00 | 30 | 1008.2 |
| 20260901211416 | 105 | 194 | 4.0 | 6.0 | 0.00 | 0.00 | 0.00 | 33 | 1008.5 |
| 20260901210417 | 105 | 228 | 1.0 | 6.0 | 0.00 | 0.00 | 0.00 | 33 | 1008.7 |
| 20260901205416 | 105 | 212 | 2.0 | 10.0 | 0.00 | 0.00 | 0.00 | 33 | 1008.8 |
| 20260901204416 | 105 | 204 | 3.0 | 7.0 | 0.00 | 0.00 | 0.00 | 33 | 1008.9 |
| 20260901203417 | 103 | 203 | 5.0 | 10.0 | 0.00 | 0.00 | 0.00 | 34 | 1009.1 |
| 20260901202416 | 103 | 223 | 6.0 | 9.0 | 0.00 | 0.00 | 0.00 | 36 | 1009.2 |
| 20260901201417 | 103 | 152 | 5.0 | 7.0 | 0.00 | 0.00 | 0.00 | 34 | 1009.3 |
| 20260901200417 | 104 | 194 | 8.0 | 12.0 | 0.00 | 0.00 | 0.00 | 35 | 1009.5 |
| 20260901195417 | 103 | 114 | 2.0 | 5.0 | 0.00 | 0.00 | 0.00 | 36 | 1009.7 |
| 20260901194416 | 104 | 214 | 4.0 | 8.0 | 0.00 | 0.00 | 0.00 | 35 | 1009.8 |
| 20260901193417 | 104 | 181 | 3.0 | 7.0 | 0.00 | 0.00 | 0.00 | 35 | 1009.9 |
| 20260901192417 | 103 | 188 | 11.0 | 14.0 | 0.00 | 0.00 | 0.00 | 36 | 1009.9 |
| 20260901191417 | 103 | 140 | 2.0 | 5.0 | 0.00 | 0.00 | 0.00 | 38 | 1010.1 |
| 20260901190417 | 100 | 180 | 0.0 | 1.0 | 0.00 | 0.00 | 0.00 | 40 | 1010.2 |
| 20260901185817 | 102 | 151 | 7.0 | 9.0 | 0.00 | 0.00 | 0.00 | 38 | 1010.3 |
| 20260901184817 | 102 | 184 | 6.0 | 9.0 | 0.00 | 0.00 | 0.00 | 38 | 1010.5 |
| 20260901183817 | 101 | 0.0 | 0.0 | 0.00 | 0.00 | 0.00 | 40 | 1010.6 | |
| 20260901182817 | 99 | 211 | 3.0 | 6.0 | 0.00 | 0.00 | 0.00 | 42 | 1010.6 |
| 20260901181816 | 100 | 192 | 2.0 | 7.0 | 0.00 | 0.00 | 0.00 | 42 | 1010.7 |
| 20260901180817 | 100 | 157 | 9.0 | 12.0 | 0.00 | 0.00 | 0.00 | 42 | 1010.8 |
| 20260901175817 | 100 | 169 | 2.0 | 9.0 | 0.00 | 0.00 | 0.00 | 42 | 1010.9 |
| 20260901174816 | 98 | 145 | 8.0 | 11.0 | 0.00 | 0.00 | 0.00 | 46 | 1011.0 |
| 20260901173817 | 98 | 157 | 7.0 | 9.0 | 0.00 | 0.00 | 0.00 | 45 | 1011.0 |
| 20260901172817 | 97 | 175 | 4.0 | 8.0 | 0.00 | 0.00 | 0.00 | 47 | 1011.0 |
| 20260901171817 | 98 | 145 | 5.0 | 7.0 | 0.00 | 0.00 | 0.00 | 46 | 1011.0 |
| 20260901170816 | 98 | 125 | 5.0 | 6.0 | 0.00 | 0.00 | 0.00 | 46 | 1011.1 |
| 20260901165817 | 97 | 203 | 4.0 | 6.0 | 0.00 | 0.00 | 0.00 | 48 | 1011.0 |
| 20260901164817 | 97 | 156 | 4.0 | 9.0 | 0.00 | 0.00 | 0.00 | 49 | 1010.9 |
| 20260901163817 | 96 | 178 | 4.0 | 8.0 | 0.00 | 0.00 | 0.00 | 50 | 1011.0 |
| 20260901162816 | 96 | 162 | 7.0 | 9.0 | 0.00 | 0.00 | 0.00 | 50 | 1011.0 |
| 20260901161817 | 95 | 153 | 9.0 | 11.0 | 0.00 | 0.00 | 0.00 | 51 | 1011.0 |
| 20260901160816 | 95 | 167 | 4.0 | 8.0 | 0.00 | 0.00 | 0.00 | 51 | 1011.0 |
| 20260901155817 | 94 | 152 | 8.0 | 11.0 | 0.00 | 0.00 | 0.00 | 52 | 1010.9 |
| 20260901154817 | 94 | 147 | 9.0 | 12.0 | 0.00 | 0.00 | 0.00 | 52 | 1010.8 |
| 20260901153817 | 93 | 157 | 8.0 | 10.0 | 0.00 | 0.00 | 0.00 | 54 | 1010.8 |
| 20260901152817 | 92 | 157 | 8.0 | 11.0 | 0.00 | 0.00 | 0.00 | 55 | 1010.9 |
| 20260901152517 | 92 | 152 | 9.0 | 12.0 | 0.00 | 0.00 | 0.00 | 56 | 1010.9 |
| 20260901151517 | 90 | 151 | 7.0 | 9.0 | 0.00 | 0.00 | 0.00 | 58 | 1010.9 |
| 20260901150516 | 90 | 138 | 9.0 | 11.0 | 0.00 | 0.00 | 0.00 | 60 | 1010.9 |
| 20260901145517 | 89 | 145 | 8.0 | 10.0 | 0.00 | 0.00 | 0.00 | 62 | 1010.9 |
| 20260901144517 | 89 | 150 | 4.0 | 6.0 | 0.00 | 0.00 | 0.00 | 62 | 1010.9 |
| 20260901143516 | 88 | 141 | 6.0 | 10.0 | 0.00 | 0.00 | 0.00 | 63 | 1010.7 |
| 20260901142517 | 88 | 128 | 0.0 | 2.0 | 0.00 | 0.00 | 0.00 | 65 | 1010.8 |
| 20260901141516 | 87 | 136 | 0.0 | 1.0 | 0.00 | 0.00 | 0.00 | 67 | 1010.7 |
| 20260901140517 | 87 | 150 | 1.0 | 4.0 | 0.00 | 0.00 | 0.00 | 68 | 1010.6 |
| 20260901135516 | 86 | 181 | 0.0 | 2.0 | 0.00 | 0.00 | 0.00 | 70 | 1010.6 |
| 20260901134517 | 85 | 0.0 | 0.0 | 0.00 | 0.00 | 0.00 | 71 | 1010.4 | |
| 20260901133716 | 85 | 0.0 | 0.0 | 0.00 | 0.00 | 0.00 | 72 | 1010.3 | |
| 20260901132716 | 85 | 0.0 | 0.0 | 0.00 | 0.00 | 0.00 | 72 | 1010.2 | |
| 20260901131717 | 85 | 0.0 | 0.0 | 0.00 | 0.00 | 0.00 | 72 | 1010.1 | |
| 20260901130917 | 85 | 0.0 | 0.0 | 0.00 | 0.00 | 0.00 | 72 | 1010.0 | |
| 20260901125916 | 85 | 0.0 | 0.0 | 0.00 | 0.00 | 0.00 | 72 | 1009.9 | |
| 20260901124917 | 85 | 143 | 5.0 | 6.0 | 0.00 | 0.00 | 0.00 | 72 | 1009.9 |
| 20260901123917 | 86 | 140 | 6.0 | 7.0 | 0.00 | 0.00 | 0.00 | 71 | 1009.8 |
| 20260901122916 | 86 | 139 | 6.0 | 8.0 | 0.00 | 0.00 | 0.00 | 71 | 1009.7 |
| 20260901121917 | 86 | 138 | 5.0 | 6.0 | 0.00 | 0.00 | 0.00 | 71 | 1009.7 |
| 20260901120917 | 86 | 142 | 6.0 | 6.0 | 0.00 | 0.00 | 0.00 | 71 | 1009.6 |
| 20260901115916 | 86 | 139 | 4.0 | 7.0 | 0.00 | 0.00 | 0.00 | 71 | 1009.5 |
| 20260901114916 | 86 | 140 | 6.0 | 8.0 | 0.00 | 0.00 | 0.00 | 70 | 1009.4 |
| 20260901113917 | 86 | 137 | 6.0 | 8.0 | 0.00 | 0.00 | 0.00 | 70 | 1009.2 |
| 20260901112916 | 86 | 139 | 7.0 | 8.0 | 0.00 | 0.00 | 0.00 | 70 | 1009.1 |
| 20260901111916 | 86 | 139 | 7.0 | 8.0 | 0.00 | 0.00 | 0.00 | 69 | 1009.1 |
| 20260901110916 | 86 | 133 | 8.0 | 9.0 | 0.00 | 0.00 | 0.00 | 69 | 1009.0 |
| 20260901105917 | 86 | 137 | 7.0 | 10.0 | 0.00 | 0.00 | 0.00 | 68 | 1009.1 |
| 20260901104916 | 86 | 139 | 8.0 | 11.0 | 0.00 | 0.00 | 0.00 | 68 | 1009.0 |
| 20260901103917 | 86 | 136 | 8.0 | 11.0 | 0.00 | 0.00 | 0.00 | 68 | 1009.0 |
| 20260901102916 | 86 | 135 | 6.0 | 8.0 | 0.00 | 0.00 | 0.00 | 68 | 1009.0 |
| 20260901101917 | 87 | 138 | 8.0 | 11.0 | 0.00 | 0.00 | 0.00 | 66 | 1009.0 |
| 20260901100917 | 87 | 138 | 7.0 | 9.0 | 0.00 | 0.00 | 0.00 | 66 | 1009.1 |
| 20260901095916 | 87 | 135 | 7.0 | 8.0 | 0.00 | 0.00 | 0.00 | 66 | 1009.1 |
| 20260901094917 | 87 | 138 | 7.0 | 9.0 | 0.00 | 0.00 | 0.00 | 65 | 1009.1 |
| 20260901093916 | 87 | 137 | 8.0 | 10.0 | 0.00 | 0.00 | 0.00 | 63 | 1009.0 |
| 20260901092917 | 87 | 140 | 6.0 | 7.0 | 0.00 | 0.00 | 0.00 | 61 | 1008.9 |
| 20260901091916 | 87 | 131 | 7.0 | 10.0 | 0.00 | 0.00 | 0.00 | 60 | 1008.9 |
| 20260901090917 | 88 | 139 | 9.0 | 11.0 | 0.00 | 0.00 | 0.00 | 59 | 1009.0 |
| 20260901085917 | 88 | 139 | 8.0 | 11.0 | 0.00 | 0.00 | 0.00 | 59 | 1008.9 |
| 20260901084916 | 88 | 150 | 11.0 | 12.0 | 0.00 | 0.00 | 0.00 | 58 | 1009.0 |
| 20260901083917 | 88 | 150 | 9.0 | 11.0 | 0.00 | 0.00 | 0.00 | 59 | 1009.1 |
| 20260901082917 | 88 | 148 | 9.0 | 11.0 | 0.00 | 0.00 | 0.00 | 57 | 1009.1 |
| 20260901081916 | 88 | 142 | 6.0 | 7.0 | 0.00 | 0.00 | 0.00 | 55 | 1009.1 |
| 20260901080917 | 89 | 137 | 5.0 | 6.0 | 0.00 | 0.00 | 0.00 | 56 | 1009.1 |
| 20260901080817 | 89 | 149 | 5.0 | 7.0 | 0.00 | 0.00 | 0.00 | 56 | 1009.0 |
| 20260901075817 | 89 | 161 | 6.0 | 8.0 | 0.00 | 0.00 | 0.00 | 53 | 1009.1 |
| 20260901074816 | 89 | 143 | 3.0 | 5.0 | 0.00 | 0.00 | 0.00 | 52 | 1009.2 |
| 20260901073817 | 89 | 163 | 4.0 | 6.0 | 0.00 | 0.00 | 0.00 | 51 | 1009.3 |
| 20260901072817 | 90 | 186 | 6.0 | 8.0 | 0.00 | 0.00 | 0.00 | 51 | 1009.2 |
| 20260901071816 | 90 | 200 | 1.0 | 5.0 | 0.00 | 0.00 | 0.00 | 50 | 1009.2 |
| 20260901070817 | 90 | 174 | 5.0 | 10.0 | 0.00 | 0.00 | 0.00 | 49 | 1009.1 |
| 20260901065816 | 90 | 188 | 8.0 | 11.0 | 0.00 | 0.00 | 0.00 | 49 | 1009.2 |
| 20260901064816 | 91 | 190 | 6.0 | 10.0 | 0.00 | 0.00 | 0.00 | 48 | 1009.0 |
| 20260901063816 | 91 | 197 | 7.0 | 11.0 | 0.00 | 0.00 | 0.00 | 48 | 1008.9 |
| 20260901062817 | 91 | 181 | 10.0 | 12.0 | 0.00 | 0.00 | 0.00 | 47 | 1008.8 |
| 20260901061817 | 92 | 184 | 8.0 | 12.0 | 0.00 | 0.00 | 0.00 | 45 | 1008.9 |
| 20260901060816 | 92 | 186 | 9.0 | 11.0 | 0.00 | 0.00 | 0.00 | 43 | 1008.9 |
| 20260901055817 | 91 | 231 | 6.0 | 7.0 | 0.00 | 0.00 | 0.00 | 44 | 1008.8 |
| 20260901054816 | 91 | 251 | 6.0 | 8.0 | 0.00 | 0.00 | 0.00 | 44 | 1008.8 |
| 20260901053817 | 93 | 225 | 4.0 | 5.0 | 0.00 | 0.00 | 0.00 | 42 | 1008.8 |
| 20260901052817 | 93 | 196 | 4.0 | 6.0 | 0.00 | 0.00 | 0.00 | 42 | 1008.6 |
| 20260901051816 | 93 | 164 | 8.0 | 10.0 | 0.00 | 0.00 | 0.00 | 41 | 1008.4 |
| 20260901050817 | 93 | 155 | 6.0 | 7.0 | 0.00 | 0.00 | 0.00 | 41 | 1008.3 |
| 20260901045817 | 93 | 145 | 7.0 | 10.0 | 0.00 | 0.00 | 0.00 | 41 | 1008.3 |
| 20260901044816 | 93 | 133 | 7.0 | 8.0 | 0.00 | 0.00 | 0.00 | 40 | 1008.4 |
| 20260901043817 | 92 | 108 | 6.0 | 8.0 | 0.00 | 0.00 | 0.00 | 40 | 1008.4 |
| 20260901042817 | 92 | 103 | 5.0 | 7.0 | 0.00 | 0.00 | 0.00 | 41 | 1008.4 |
| 20260901041816 | 92 | 113 | 9.0 | 11.0 | 0.00 | 0.00 | 0.00 | 41 | 1008.2 |
| 20260901040817 | 92 | 114 | 10.0 | 13.0 | 0.00 | 0.00 | 0.00 | 42 | 1008.0 |
| 20260901035816 | 91 | 104 | 10.0 | 13.0 | 0.00 | 0.00 | 0.00 | 43 | 1007.9 |
| 20260901034816 | 92 | 103 | 11.0 | 14.0 | 0.00 | 0.00 | 0.00 | 42 | 1007.7 |